This is the latest recevied weather packets stored in our database for station/object KG7MRB. If no packets are shown the sender has not sent any weather packets the latest 10 day(s).
| Time | Temp. | Humidity | Pressure | Rain* | Wind** | Luminosity | Snow |
|---|---|---|---|---|---|---|---|
| 1777846724 | 28.89° C | 32% | 1029.8 hPa | 0 mm | - | 587 W/m² | - |
| 1777846423 | 28.33° C | 33% | 1029.9 hPa | 0 mm | - | 598 W/m² | - |
| 1777846118 | 28.33° C | 36% | 1030 hPa | 0 mm | - | 606 W/m² | - |
| 1777845816 | 28.33° C | 33% | 1030 hPa | 0 mm | - | 613 W/m² | - |
| 1777845513 | 28.33° C | 33% | 1030.3 hPa | 0 mm | - | 624 W/m² | - |
| 1777845210 | 28.33° C | 33% | 1030.4 hPa | 0 mm | - | 629 W/m² | - |
| 1777844907 | 28.89° C | 32% | 1030.2 hPa | 0 mm | - | 637 W/m² | - |
| 1777844604 | 28.33° C | 31% | 1030.4 hPa | 0 mm | - | 639 W/m² | - |
| 1777844301 | 28.89° C | 32% | 1030.4 hPa | 0 mm | - | 644 W/m² | - |
| 1777843999 | 27.78° C | 33% | 1030.2 hPa | 0 mm | - | 646 W/m² | - |
| 1777843696 | 28.33° C | 32% | 1030.4 hPa | 0 mm | - | 648 W/m² | - |
| 1777843394 | 28.33° C | 33% | 1030.2 hPa | 0 mm | - | 652 W/m² | - |
| 1777843091 | 27.78° C | 35% | 1030.5 hPa | 0 mm | - | 645 W/m² | - |
| 1777842788 | 27.78° C | 32% | 1030.5 hPa | 0 mm | - | 651 W/m² | - |
| 1777842487 | 27.78° C | 32% | 1030.2 hPa | 0 mm | - | 663 W/m² | - |
| 1777842186 | 27.78° C | 33% | 1030.5 hPa | 0 mm | - | 667 W/m² | - |
| 1777841881 | 27.22° C | 32% | 1030.7 hPa | 0 mm | - | 644 W/m² | - |
| 1777841577 | 27.78° C | 32% | 1030.8 hPa | 0 mm | - | 688 W/m² | - |
| 1777841274 | 27.22° C | 34% | 1030.9 hPa | 0 mm | - | 677 W/m² | - |
| 1777840971 | 27.22° C | 34% | 1031.1 hPa | 0 mm | - | 690 W/m² | - |
| 1777840669 | 26.67° C | 34% | 1030.9 hPa | 0 mm | - | 689 W/m² | - |
| 1777840366 | 26.67° C | 35% | 1031 hPa | 0 mm | - | 685 W/m² | - |
| 1777840063 | 27.22° C | 34% | 1031.1 hPa | 0 mm | - | 676 W/m² | - |
| 1777839760 | 27.22° C | 34% | 1031.2 hPa | 0 mm | - | 690 W/m² | - |
| 1777839458 | 26.67° C | 36% | 1031.3 hPa | 0 mm | - | 684 W/m² | - |
* Rain latest hour (hover to see other rain measurements)
** Current wind speed in m/s (hover to see current wind gust speed)